Time,TemperatureF,DewpointF,PressureIn,WindDirection,WindDirectionDegrees,WindSpeedMPH,WindSpeedGustMPH,Humidity,HourlyPrecipIn,Conditions,Clouds,dailyrainin,SoftwareType,DateUTC
2013-08-17 09:42:00,65.1,0.0,30.16,NNE,23,3.0,6.0,0,0.00,,,0.00,Weather View 32 v70,2013-08-17 13:42:00,
2013-08-17 09:43:00,65.1,0.0,30.16,North,0,3.0,6.0,0,0.00,,,0.00,Weather View 32 v70,2013-08-17 13:43:00,
2013-08-17 09:48:00,65.3,0.0,30.19,NNE,23,3.0,9.0,0,0.00,,,0.00,Weather View 32 v70,2013-08-17 13:48:00,
2013-08-17 09:53:00,65.3,0.0,30.19,NNE,23,4.0,9.0,0,0.00,,,0.00,Weather View 32 v70,2013-08-17 13:53:00,
2013-08-17 09:58:00,65.3,0.0,30.20,NNE,23,2.0,9.0,0,0.00,,,0.00,Weather View 32 v70,2013-08-17 13:58:00,
2013-08-17 10:03:00,65.1,0.0,30.19,NE,45,4.0,9.0,0,0.00,,,0.00,Weather View 32 v70,2013-08-17 14:03:00,
2013-08-17 10:08:00,65.3,0.0,30.19,ENE,68,3.0,9.0,0,0.00,,,0.00,Weather View 32 v70,2013-08-17 14:08:00,
2013-08-17 10:13:00,64.4,0.0,30.19,ENE,68,8.0,12.0,0,0.00,,,0.00,Weather View 32 v70,2013-08-17 14:13:00,
2013-08-17 10:18:00,64.0,0.0,30.20,NNE,23,3.0,12.0,0,0.00,,,0.00,Weather View 32 v70,2013-08-17 14:18:00,
2013-08-17 10:23:00,64.0,0.0,30.17,NNW,338,4.0,12.0,0,0.00,,,0.00,Weather View 32 v70,2013-08-17 14:23:00,
2013-08-17 10:28:00,64.2,0.0,30.19,NNW,338,2.0,12.0,0,0.00,,,0.00,Weather View 32 v70,2013-08-17 14:28:00,
2013-08-17 10:33:00,64.6,0.0,30.17,North,0,1.0,12.0,0,0.00,,,0.00,Weather View 32 v70,2013-08-17 14:33:00,
2013-08-17 10:38:00,64.8,0.0,30.20,NE,45,6.0,12.0,0,0.01,,,0.01,Weather View 32 v70,2013-08-17 14:38:00,
2013-08-17 10:43:00,64.4,0.0,30.19,North,0,4.0,12.0,0,0.01,,,0.01,Weather View 32 v70,2013-08-17 14:43:00,
2013-08-17 10:48:00,64.2,0.0,30.20,NE,45,6.0,12.0,0,0.01,,,0.01,Weather View 32 v70,2013-08-17 14:48:00,
2013-08-17 10:55:00,64.2,0.0,30.20,NNW,338,4.0,12.0,0,0.02,,,0.02,Weather View 32 v70,2013-08-17 14:55:00,
2013-08-17 11:00:00,64.0,0.0,30.20,NE,45,5.0,12.0,0,0.02,,,0.02,Weather View 32 v70,2013-08-17 15:00:00,
2013-08-17 11:05:00,64.4,0.0,30.20,NNE,23,3.0,12.0,0,0.02,,,0.02,Weather View 32 v70,2013-08-17 15:05:00,
2013-08-17 11:10:00,64.0,0.0,30.20,North,0,3.0,12.0,0,0.02,,,0.02,Weather View 32 v70,2013-08-17 15:10:00,
2013-08-17 11:20:00,64.0,0.0,30.20,NNE,23,4.0,9.0,0,0.02,,,0.02,Weather View 32 v70,2013-08-17 15:20:00,
2013-08-17 11:25:00,64.4,0.0,30.20,North,0,3.0,9.0,0,0.02,,,0.02,Weather View 32 v70,2013-08-17 15:25:00,
2013-08-17 11:30:00,64.6,0.0,30.19,NW,315,0.0,9.0,0,0.03,,,0.03,Weather View 32 v70,2013-08-17 15:30:00,
2013-08-17 11:35:00,64.8,0.0,30.19,NNW,338,0.0,9.0,0,0.03,,,0.03,Weather View 32 v70,2013-08-17 15:35:00,
2013-08-17 11:40:00,64.9,0.0,30.20,NNW,338,6.0,9.0,0,0.02,,,0.03,Weather View 32 v70,2013-08-17 15:40:00,
2013-08-17 11:50:00,64.8,0.0,30.21,NNW,338,2.0,10.0,0,0.03,,,0.05,Weather View 32 v70,2013-08-17 15:50:00,
2013-08-17 11:55:00,64.9,0.0,30.20,NNE,23,5.0,10.0,0,0.04,,,0.06,Weather View 32 v70,2013-08-17 15:55:00,
2013-08-17 12:00:00,65.1,0.0,30.19,NNE,23,1.0,10.0,0,0.04,,,0.06,Weather View 32 v70,2013-08-17 16:00:00,
2013-08-17 12:05:00,64.9,0.0,30.18,North,0,4.0,10.0,0,0.04,,,0.06,Weather View 32 v70,2013-08-17 16:05:00,
2013-08-17 12:10:00,64.9,0.0,30.20,NE,45,6.0,10.0,0,0.04,,,0.06,Weather View 32 v70,2013-08-17 16:10:00,
2013-08-17 12:20:00,64.9,0.0,30.19,NNE,23,5.0,10.0,0,0.05,,,0.07,Weather View 32 v70,2013-08-17 16:20:00,
2013-08-17 12:25:00,64.9,0.0,30.20,WNW,293,3.0,10.0,0,0.05,,,0.07,Weather View 32 v70,2013-08-17 16:25:00,
2013-08-17 12:30:00,65.1,0.0,30.19,NNE,23,1.0,10.0,0,0.04,,,0.07,Weather View 32 v70,2013-08-17 16:30:00,
2013-08-17 12:39:00,65.1,0.0,30.18,North,0,4.0,10.0,0,0.05,,,0.08,Weather View 32 v70,2013-08-17 16:39:00,
2013-08-17 12:45:00,65.1,0.0,30.19,North,0,3.0,10.0,0,0.05,,,0.08,Weather View 32 v70,2013-08-17 16:45:00,
2013-08-17 12:50:00,65.3,0.0,30.18,WNW,293,0.0,10.0,0,0.03,,,0.08,Weather View 32 v70,2013-08-17 16:50:00,
2013-08-17 12:55:00,65.5,0.0,30.21,WNW,293,0.0,10.0,0,0.02,,,0.08,Weather View 32 v70,2013-08-17 16:55:00,
2013-08-17 13:00:00,65.7,0.0,30.21,NW,315,0.0,10.0,0,0.02,,,0.08,Weather View 32 v70,2013-08-17 17:00:00,
2013-08-17 13:09:00,66.2,0.0,30.20,NNE,23,1.0,9.0,0,0.02,,,0.08,Weather View 32 v70,2013-08-17 17:09:00,
2013-08-17 13:14:00,66.4,0.0,30.18,NW,315,0.0,9.0,0,0.01,,,0.08,Weather View 32 v70,2013-08-17 17:14:00,
2013-08-17 13:19:00,66.7,0.0,30.19,NNW,338,1.0,7.0,0,0.01,,,0.08,Weather View 32 v70,2013-08-17 17:19:00,
2013-08-17 13:24:00,66.7,0.0,30.19,NNE,23,2.0,7.0,0,0.01,,,0.08,Weather View 32 v70,2013-08-17 17:24:00,
2013-08-17 13:30:00,66.7,0.0,30.16,North,0,2.0,7.0,0,0.01,,,0.08,Weather View 32 v70,2013-08-17 17:30:00,
2013-08-17 13:39:00,66.9,0.0,30.18,NNW,338,0.0,7.0,0,0.00,,,0.08,Weather View 32 v70,2013-08-17 17:39:00,
2013-08-17 13:44:00,66.9,0.0,30.19,NW,315,0.0,7.0,0,0.00,,,0.08,Weather View 32 v70,2013-08-17 17:44:00,
2013-08-17 13:49:00,67.1,0.0,30.19,NNE,23,1.0,7.0,0,0.00,,,0.08,Weather View 32 v70,2013-08-17 17:49:00,
2013-08-17 13:54:00,67.5,0.0,30.17,NW,315,0.0,7.0,0,0.00,,,0.08,Weather View 32 v70,2013-08-17 17:54:00,
2013-08-17 14:00:00,67.6,0.0,30.18,WNW,293,0.0,7.0,0,0.00,,,0.08,Weather View 32 v70,2013-08-17 18:00:00,
2013-08-17 14:09:00,68.0,0.0,30.17,NW,315,0.0,7.0,0,0.00,,,0.08,Weather View 32 v70,2013-08-17 18:09:00,
2013-08-17 14:14:00,68.4,0.0,30.15,North,0,0.0,7.0,0,0.00,,,0.08,Weather View 32 v70,2013-08-17 18:14:00,
2013-08-17 14:19:00,68.4,0.0,30.17,NNW,338,1.0,7.0,0,0.00,,,0.08,Weather View 32 v70,2013-08-17 18:19:00,
2013-08-17 14:24:00,68.2,0.0,30.18,NNW,338,0.0,6.0,0,0.00,,,0.08,Weather View 32 v70,2013-08-17 18:24:00,
2013-08-17 14:30:00,68.2,0.0,30.16,NW,315,1.0,6.0,0,0.00,,,0.08,Weather View 32 v70,2013-08-17 18:30:00,
2013-08-17 14:35:00,68.2,0.0,30.19,NW,315,0.0,6.0,0,0.00,,,0.08,Weather View 32 v70,2013-08-17 18:35:00,
2013-08-17 14:44:00,68.2,0.0,30.16,NNE,23,1.0,6.0,0,0.00,,,0.08,Weather View 32 v70,2013-08-17 18:44:00,
2013-08-17 14:49:00,68.4,0.0,30.17,North,0,3.0,6.0,0,0.00,,,0.08,Weather View 32 v70,2013-08-17 18:49:00,
2013-08-17 14:54:00,68.4,0.0,30.15,NW,315,0.0,6.0,0,0.00,,,0.08,Weather View 32 v70,2013-08-17 18:54:00,
2013-08-17 15:00:00,68.5,0.0,30.17,NNW,338,0.0,6.0,0,0.00,,,0.08,Weather View 32 v70,2013-08-17 19:00:00,
2013-08-17 15:05:00,68.7,0.0,30.16,NW,315,0.0,6.0,0,0.00,,,0.08,Weather View 32 v70,2013-08-17 19:05:00,
2013-08-17 15:14:00,69.1,0.0,30.16,NW,315,0.0,6.0,0,0.00,,,0.08,Weather View 32 v70,2013-08-17 19:14:00,
2013-08-17 15:19:00,69.3,0.0,30.16,WNW,293,1.0,6.0,0,0.00,,,0.08,Weather View 32 v70,2013-08-17 19:19:00,
2013-08-17 15:24:00,69.3,0.0,30.14,North,0,2.0,6.0,0,0.00,,,0.08,Weather View 32 v70,2013-08-17 19:24:00,
2013-08-17 15:30:00,69.3,0.0,30.14,North,0,1.0,6.0,0,0.00,,,0.08,Weather View 32 v70,2013-08-17 19:30:00,
2013-08-17 15:39:00,69.4,0.0,30.13,WNW,293,0.0,6.0,0,0.00,,,0.08,Weather View 32 v70,2013-08-17 19:39:00,
2013-08-17 15:45:00,69.6,0.0,30.16,NNW,338,2.0,6.0,0,0.00,,,0.08,Weather View 32 v70,2013-08-17 19:45:00,
2013-08-17 15:54:00,70.0,0.0,30.15,North,0,2.0,6.0,0,0.00,,,0.08,Weather View 32 v70,2013-08-17 19:54:00,
2013-08-17 15:59:00,70.2,0.0,30.16,WNW,293,0.0,6.0,0,0.00,,,0.08,Weather View 32 v70,2013-08-17 19:59:00,
2013-08-17 16:05:00,70.3,0.0,30.16,North,0,0.0,6.0,0,0.00,,,0.08,Weather View 32 v70,2013-08-17 20:05:00,
2013-08-17 16:14:00,70.5,0.0,30.13,North,0,1.0,6.0,0,0.01,,,0.09,Weather View 32 v70,2013-08-17 20:14:00,
2013-08-17 16:19:00,70.5,0.0,30.13,WNW,293,0.0,6.0,0,0.01,,,0.09,Weather View 32 v70,2013-08-17 20:19:00,
2013-08-17 16:24:00,70.5,0.0,30.15,NE,45,2.0,6.0,0,0.01,,,0.09,Weather View 32 v70,2013-08-17 20:24:00,
2013-08-17 16:29:00,70.3,0.0,30.15,North,0,1.0,6.0,0,0.01,,,0.09,Weather View 32 v70,2013-08-17 20:29:00,
2013-08-17 16:34:00,70.5,0.0,30.13,NNW,338,1.0,6.0,0,0.01,,,0.09,Weather View 32 v70,2013-08-17 20:34:00,
2013-08-17 16:40:00,70.5,0.0,30.16,NNW,338,0.0,6.0,0,0.01,,,0.09,Weather View 32 v70,2013-08-17 20:40:00,
2013-08-17 16:45:00,70.5,0.0,30.16,NW,315,0.0,6.0,0,0.01,,,0.09,Weather View 32 v70,2013-08-17 20:45:00,
2013-08-17 16:54:00,70.3,0.0,30.14,North,0,3.0,6.0,0,0.01,,,0.09,Weather View 32 v70,2013-08-17 20:54:00,
2013-08-17 16:59:00,70.3,0.0,30.13,NNE,23,2.0,7.0,0,0.02,,,0.10,Weather View 32 v70,2013-08-17 20:59:00,
2013-08-17 17:04:00,70.3,0.0,30.15,North,0,4.0,7.0,0,0.03,,,0.11,Weather View 32 v70,2013-08-17 21:04:00,
2013-08-17 17:10:00,70.2,0.0,30.15,NE,45,3.0,7.0,0,0.03,,,0.11,Weather View 32 v70,2013-08-17 21:10:00,
2013-08-17 17:19:00,70.2,0.0,30.12,North,0,2.0,7.0,0,0.02,,,0.11,Weather View 32 v70,2013-08-17 21:19:00,
2013-08-17 17:24:00,70.0,0.0,30.15,NNE,23,4.0,7.0,0,0.02,,,0.11,Weather View 32 v70,2013-08-17 21:24:00,
2013-08-17 17:29:00,70.0,0.0,30.15,NNW,338,1.0,7.0,0,0.02,,,0.11,Weather View 32 v70,2013-08-17 21:29:00,
2013-08-17 17:34:00,70.0,0.0,30.14,NNE,23,2.0,8.0,0,0.03,,,0.12,Weather View 32 v70,2013-08-17 21:34:00,
2013-08-17 17:39:00,70.0,0.0,30.15,NW,315,1.0,9.0,0,0.03,,,0.12,Weather View 32 v70,2013-08-17 21:39:00,
2013-08-17 17:45:00,70.0,0.0,30.14,NNE,23,4.0,9.0,0,0.03,,,0.12,Weather View 32 v70,2013-08-17 21:45:00,
2013-08-17 17:54:00,70.2,0.0,30.14,WNW,293,0.0,9.0,0,0.03,,,0.12,Weather View 32 v70,2013-08-17 21:54:00,
2013-08-17 17:59:00,69.8,0.0,30.14,ENE,68,3.0,9.0,0,0.03,,,0.13,Weather View 32 v70,2013-08-17 21:59:00,
2013-08-17 18:04:00,69.8,0.0,30.13,WNW,293,0.0,9.0,0,0.02,,,0.13,Weather View 32 v70,2013-08-17 22:04:00,
2013-08-17 18:09:00,69.8,0.0,30.14,North,0,2.0,9.0,0,0.02,,,0.13,Weather View 32 v70,2013-08-17 22:09:00,
2013-08-17 18:15:00,69.6,0.0,30.13,NNE,23,4.0,9.0,0,0.02,,,0.13,Weather View 32 v70,2013-08-17 22:15:00,
2013-08-17 18:20:00,69.6,0.0,30.14,NNW,338,4.0,9.0,0,0.02,,,0.13,Weather View 32 v70,2013-08-17 22:20:00,
2013-08-17 18:25:00,69.8,0.0,30.13,NNE,23,4.0,9.0,0,0.02,,,0.13,Weather View 32 v70,2013-08-17 22:25:00,
2013-08-17 18:34:00,69.6,0.0,30.12,NW,315,0.0,9.0,0,0.01,,,0.13,Weather View 32 v70,2013-08-17 22:34:00,
2013-08-17 18:39:00,69.6,0.0,30.12,North,0,2.0,9.0,0,0.01,,,0.13,Weather View 32 v70,2013-08-17 22:39:00,
2013-08-17 18:44:00,69.3,0.0,30.15,NNW,338,1.0,9.0,0,0.01,,,0.13,Weather View 32 v70,2013-08-17 22:44:00,
2013-08-17 18:49:00,69.4,0.0,30.13,NNE,23,2.0,9.0,0,0.01,,,0.13,Weather View 32 v70,2013-08-17 22:49:00,
2013-08-17 18:54:00,69.4,0.0,30.14,NW,315,0.0,9.0,0,0.01,,,0.13,Weather View 32 v70,2013-08-17 22:54:00,
2013-08-17 19:00:00,69.4,0.0,30.15,West,270,0.0,9.0,0,0.01,,,0.14,Weather View 32 v70,2013-08-17 23:00:00,
2013-08-17 19:05:00,69.3,0.0,30.14,WNW,293,1.0,9.0,0,0.01,,,0.14,Weather View 32 v70,2013-08-17 23:05:00,
2013-08-17 19:09:00,69.1,0.0,30.16,WNW,293,0.0,9.0,0,0.01,,,0.14,Weather View 32 v70,2013-08-17 23:09:00,
2013-08-17 19:14:00,69.1,0.0,30.14,North,0,4.0,9.0,0,0.01,,,0.14,Weather View 32 v70,2013-08-17 23:14:00,
2013-08-17 19:19:00,68.7,0.0,30.15,NW,315,3.0,9.0,0,0.01,,,0.14,Weather View 32 v70,2013-08-17 23:19:00,
2013-08-17 19:24:00,68.9,0.0,30.15,NW,315,0.0,9.0,0,0.01,,,0.14,Weather View 32 v70,2013-08-17 23:24:00,
2013-08-17 19:29:00,68.5,0.0,30.15,North,0,1.0,9.0,0,0.01,,,0.14,Weather View 32 v70,2013-08-17 23:29:00,
2013-08-17 19:39:00,68.5,0.0,30.15,North,0,2.0,9.0,0,0.01,,,0.14,Weather View 32 v70,2013-08-17 23:39:00,
2013-08-17 19:44:00,68.5,0.0,30.14,NW,315,0.0,9.0,0,0.01,,,0.14,Weather View 32 v70,2013-08-17 23:44:00,
2013-08-17 19:49:00,68.5,0.0,30.13,NNE,23,3.0,9.0,0,0.01,,,0.14,Weather View 32 v70,2013-08-17 23:49:00,
2013-08-17 19:54:00,68.4,0.0,30.15,NE,45,3.0,9.0,0,0.01,,,0.14,Weather View 32 v70,2013-08-17 23:54:00,
2013-08-17 19:59:00,68.0,0.0,30.16,NNW,338,0.0,9.0,0,0.00,,,0.14,Weather View 32 v70,2013-08-17 23:59:00,
2013-08-17 20:04:00,68.2,0.0,30.14,NNE,23,1.0,9.0,0,0.00,,,0.14,Weather View 32 v70,2013-08-18 00:04:00,
2013-08-17 20:09:00,68.2,0.0,30.16,NW,315,0.0,9.0,0,0.00,,,0.14,Weather View 32 v70,2013-08-18 00:09:00,
2013-08-17 20:14:00,68.0,0.0,30.15,NNE,23,3.0,9.0,0,0.00,,,0.14,Weather View 32 v70,2013-08-18 00:14:00,
2013-08-17 20:19:00,68.2,0.0,30.15,NNE,23,2.0,9.0,0,0.00,,,0.14,Weather View 32 v70,2013-08-18 00:19:00,
2013-08-17 20:24:00,68.0,0.0,30.16,NW,315,0.0,9.0,0,0.00,,,0.14,Weather View 32 v70,2013-08-18 00:24:00,
2013-08-17 20:29:00,68.0,0.0,30.15,NNE,23,6.0,8.0,0,0.00,,,0.14,Weather View 32 v70,2013-08-18 00:29:00,
2013-08-17 20:34:00,68.0,0.0,30.17,WNW,293,0.0,8.0,0,0.00,,,0.14,Weather View 32 v70,2013-08-18 00:34:00,
2013-08-17 20:39:00,68.0,0.0,30.16,WNW,293,0.0,9.0,0,0.00,,,0.14,Weather View 32 v70,2013-08-18 00:39:00,
2013-08-17 20:44:00,67.8,0.0,30.17,NNW,338,3.0,10.0,0,0.00,,,0.14,Weather View 32 v70,2013-08-18 00:44:00,
2013-08-17 20:49:00,67.8,0.0,30.16,North,0,2.0,10.0,0,0.00,,,0.14,Weather View 32 v70,2013-08-18 00:49:00,
2013-08-17 20:54:00,67.8,0.0,30.15,North,0,3.0,10.0,0,0.01,,,0.15,Weather View 32 v70,2013-08-18 00:54:00,
2013-08-17 20:59:00,67.8,0.0,30.17,NW,315,0.0,10.0,0,0.01,,,0.15,Weather View 32 v70,2013-08-18 00:59:00,
2013-08-17 21:09:00,67.8,0.0,30.16,NE,45,2.0,10.0,0,0.02,,,0.16,Weather View 32 v70,2013-08-18 01:09:00,
2013-08-17 21:14:00,67.8,0.0,30.15,NW,315,0.0,10.0,0,0.03,,,0.17,Weather View 32 v70,2013-08-18 01:14:00,
2013-08-17 21:19:00,67.6,0.0,30.15,NW,315,1.0,10.0,0,0.03,,,0.17,Weather View 32 v70,2013-08-18 01:19:00,
2013-08-17 21:24:00,67.6,0.0,30.16,NNE,23,2.0,10.0,0,0.05,,,0.19,Weather View 32 v70,2013-08-18 01:24:00,
2013-08-17 21:29:00,67.6,0.0,30.16,NW,315,1.0,10.0,0,0.06,,,0.20,Weather View 32 v70,2013-08-18 01:29:00,
2013-08-17 21:34:00,67.5,0.0,30.17,North,0,3.0,10.0,0,0.10,,,0.24,Weather View 32 v70,2013-08-18 01:34:00,
2013-08-17 21:39:00,67.3,0.0,30.17,NNW,338,4.0,10.0,0,0.13,,,0.27,Weather View 32 v70,2013-08-18 01:39:00,
2013-08-17 21:44:00,67.3,0.0,30.17,NNE,23,2.0,10.0,0,0.14,,,0.28,Weather View 32 v70,2013-08-18 01:44:00,
2013-08-17 21:49:00,67.1,0.0,30.17,North,0,5.0,7.0,0,0.16,,,0.30,Weather View 32 v70,2013-08-18 01:49:00,
2013-08-17 21:54:00,67.1,0.0,30.16,NW,315,0.0,7.0,0,0.15,,,0.30,Weather View 32 v70,2013-08-18 01:54:00,
2013-08-17 21:59:00,66.9,0.0,30.17,North,0,1.0,7.0,0,0.16,,,0.31,Weather View 32 v70,2013-08-18 01:59:00,
2013-08-17 22:04:00,66.9,0.0,30.17,NNW,338,1.0,7.0,0,0.18,,,0.33,Weather View 32 v70,2013-08-18 02:04:00,
2013-08-17 22:09:00,66.9,0.0,30.16,NNE,23,4.0,7.0,0,0.17,,,0.33,Weather View 32 v70,2013-08-18 02:09:00,
2013-08-17 22:14:00,67.1,0.0,30.16,NNW,338,0.0,7.0,0,0.16,,,0.33,Weather View 32 v70,2013-08-18 02:14:00,
2013-08-17 22:19:00,67.1,0.0,30.16,NNW,338,2.0,7.0,0,0.16,,,0.33,Weather View 32 v70,2013-08-18 02:19:00,
2013-08-17 22:24:00,66.9,0.0,30.18,NNW,338,0.0,7.0,0,0.14,,,0.33,Weather View 32 v70,2013-08-18 02:24:00,
2013-08-17 22:29:00,67.1,0.0,30.16,NW,315,0.0,7.0,0,0.13,,,0.33,Weather View 32 v70,2013-08-18 02:29:00,
2013-08-17 22:34:00,66.9,0.0,30.16,North,0,5.0,7.0,0,0.09,,,0.33,Weather View 32 v70,2013-08-18 02:34:00,
2013-08-17 22:35:00,66.9,0.0,30.16,North,0,5.0,7.0,0,0.09,,,0.33,Weather View 32 v70,2013-08-18 02:35:00,
2013-08-17 22:38:00,67.1,0.0,30.16,North,0,0.0,7.0,0,0.06,,,0.33,Weather View 32 v70,2013-08-18 02:38:00,